When you browse on this site, cookies collect data to enhance your experience and personalize the content and advertising you see.
Visit our Privacy Policy to learn more. By continuing to use the site, you agree to this use of cookies and data.
  • In Sweden
  • List of Countries
  • For 7 days
  • Water Temperature
  • Weather Map
  • Weather Widgets
  • user-avatar
    Login

    Hourly Weather Osowie

    Today, 21 August, Wednesday

    Time Temperature Precipitation Wind Pressure Humidity
    00:00 +20°C° 0.4 mm 4 mps 756 mmHg 70%
    01:00 +19°C° 0 mm 4 mps 755 mmHg 81%
    02:00 +19°C° 1 mm 5 mps 755 mmHg 85%
    03:00 +17°C° 1 mm 5 mps 755 mmHg 89%
    04:00 +16°C° 1 mm 6 mps 755 mmHg 93%
    05:00 +16°C° 0.4 mm 6 mps 756 mmHg 91%
    06:00 +16°C° 0.4 mm 6 mps 756 mmHg 89%
    07:00 +15°C° 0.4 mm 7 mps 757 mmHg 86%
    08:00 +15°C° 0.1 mm 6 mps 758 mmHg 86%
    09:00 +16°C° 0.1 mm 5 mps 758 mmHg 85%
    10:00 +17°C° 0.1 mm 4 mps 759 mmHg 85%
    11:00 +17°C° 0 mm 4 mps 760 mmHg 81%
    12:00 +18°C° 0 mm 3 mps 760 mmHg 78%
    13:00 +19°C° 0 mm 3 mps 761 mmHg 75%
    14:00 +19°C° 0 mm 3 mps 761 mmHg 72%
    15:00 +20°C° 0 mm 3 mps 760 mmHg 69%
    16:00 +21°C° 0 mm 4 mps 760 mmHg 66%
    17:00 +20°C° 0 mm 3 mps 761 mmHg 70%
    18:00 +18°C° 0 mm 2 mps 761 mmHg 75%
    19:00 +17°C° 0 mm 2 mps 761 mmHg 80%
    20:00 +18°C° 0 mm 1 mps 761 mmHg 82%
    21:00 +16°C° 0 mm 1 mps 761 mmHg 84%
    22:00 +15°C° 0 mm 0 mps 762 mmHg 86%
    23:00 +14°C° 0 mm 0 mps 762 mmHg 87%

    Tomorrow, 22 August, Thursday

    Time Temperature Precipitation Wind Pressure Humidity
    00:00 +15°C° 0 mm 1 mps 762 mmHg 88%
    01:00 +15°C° 0 mm 1 mps 762 mmHg 89%
    02:00 +14°C° 0 mm 1 mps 762 mmHg 89%
    03:00 +13°C° 0 mm 0 mps 762 mmHg 90%
    04:00 +13°C° 0 mm 0 mps 762 mmHg 90%
    05:00 +15°C° 0 mm 1 mps 762 mmHg 87%
    06:00 +16°C° 0 mm 1 mps 763 mmHg 83%
    07:00 +18°C° 0 mm 1 mps 763 mmHg 79%
    08:00 +19°C° 0 mm 1 mps 763 mmHg 74%
    09:00 +20°C° 0 mm 2 mps 763 mmHg 68%
    10:00 +21°C° 0 mm 2 mps 763 mmHg 63%
    11:00 +23°C° 0 mm 2 mps 763 mmHg 59%
    12:00 +23°C° 0 mm 2 mps 762 mmHg 56%
    13:00 +24°C° 0 mm 2 mps 762 mmHg 52%
    14:00 +24°C° 0 mm 2 mps 762 mmHg 52%
    15:00 +24°C° 0 mm 2 mps 762 mmHg 52%
    16:00 +24°C° 0 mm 2 mps 761 mmHg 52%
    17:00 +23°C° 0 mm 2 mps 761 mmHg 56%
    18:00 +20°C° 0 mm 2 mps 761 mmHg 61%
    19:00 +19°C° 0 mm 2 mps 761 mmHg 65%
    20:00 +18°C° 0 mm 2 mps 761 mmHg 66%
    21:00 +17°C° 0 mm 2 mps 762 mmHg 68%
    22:00 +17°C° 0 mm 2 mps 762 mmHg 70%
    23:00 +16°C° 0 mm 2 mps 762 mmHg 71%

    Day after tomorrow, 23 August, Friday

    Time Temperature Precipitation Wind Pressure Humidity
    00:00 +16°C° 0 mm 2 mps 762 mmHg 72%
    01:00 +15°C° 0 mm 2 mps 762 mmHg 73%
    02:00 +15°C° 0 mm 2 mps 762 mmHg 75%
    03:00 +15°C° 0 mm 2 mps 762 mmHg 77%
    04:00 +14°C° 0 mm 2 mps 762 mmHg 78%
    05:00 +15°C° 0 mm 2 mps 762 mmHg 76%
    06:00 +17°C° 0 mm 2 mps 762 mmHg 74%
    07:00 +18°C° 0 mm 3 mps 762 mmHg 72%
    08:00 +19°C° 0 mm 3 mps 762 mmHg 65%
    09:00 +21°C° 0 mm 3 mps 762 mmHg 58%
    10:00 +23°C° 0 mm 4 mps 762 mmHg 51%
    11:00 +25°C° 0 mm 4 mps 762 mmHg 47%
    12:00 +26°C° 0 mm 4 mps 761 mmHg 43%
    13:00 +27°C° 0 mm 4 mps 761 mmHg 39%
    14:00 +27°C° 0 mm 4 mps 761 mmHg 40%
    15:00 +26°C° 0 mm 4 mps 760 mmHg 41%
    16:00 +26°C° 0 mm 4 mps 760 mmHg 42%
    17:00 +25°C° 0 mm 3 mps 760 mmHg 48%
    18:00 +22°C° 0 mm 3 mps 760 mmHg 53%
    19:00 +20°C° 0 mm 3 mps 760 mmHg 59%
    20:00 +19°C° 0 mm 3 mps 760 mmHg 61%
    21:00 +18°C° 0 mm 3 mps 760 mmHg 63%
    22:00 +18°C° 0 mm 3 mps 760 mmHg 66%
    23:00 +17°C° 0 mm 3 mps 760 mmHg 69%

    24 August, Saturday

    Time Temperature Precipitation Wind Pressure Humidity
    00:00 +17°C° 0 mm 3 mps 760 mmHg 72%
    01:00 +16°C° 0 mm 3 mps 760 mmHg 75%
    02:00 +16°C° 0 mm 3 mps 760 mmHg 76%
    03:00 +14°C° 0 mm 3 mps 760 mmHg 78%
    04:00 +14°C° 0 mm 3 mps 760 mmHg 79%
    05:00 +16°C° 0 mm 3 mps 759 mmHg 76%
    06:00 +17°C° 0 mm 3 mps 759 mmHg 73%
    07:00 +18°C° 0 mm 4 mps 759 mmHg 70%
    08:00 +20°C° 0 mm 4 mps 759 mmHg 65%
    09:00 +21°C° 0 mm 4 mps 759 mmHg 59%
    10:00 +23°C° 0 mm 4 mps 759 mmHg 54%
    11:00 +25°C° 0 mm 4 mps 759 mmHg 52%
    12:00 +26°C° 0 mm 4 mps 758 mmHg 49%
    13:00 +27°C° 0 mm 4 mps 758 mmHg 46%
    14:00 +27°C° 0 mm 4 mps 758 mmHg 46%
    15:00 +27°C° 0 mm 4 mps 758 mmHg 46%
    16:00 +27°C° 0 mm 4 mps 757 mmHg 47%
    17:00 +25°C° 0 mm 4 mps 757 mmHg 51%
    18:00 +22°C° 0 mm 3 mps 757 mmHg 56%
    19:00 +21°C° 0 mm 3 mps 757 mmHg 61%
    20:00 +20°C° 0 mm 3 mps 757 mmHg 63%
    21:00 +19°C° 0 mm 3 mps 758 mmHg 65%
    22:00 +18°C° 0 mm 3 mps 758 mmHg 66%
    23:00 +18°C° 0 mm 3 mps 758 mmHg 68%

    25 August, Sunday

    Time Temperature Precipitation Wind Pressure Humidity
    00:00 +18°C° 0 mm 3 mps 758 mmHg 69%
    01:00 +17°C° 0 mm 3 mps 758 mmHg 70%
    02:00 +17°C° 0 mm 3 mps 757 mmHg 71%
    03:00 +16°C° 0 mm 3 mps 757 mmHg 72%
    04:00 +16°C° 0 mm 3 mps 757 mmHg 73%
    05:00 +17°C° 0 mm 3 mps 757 mmHg 71%
    06:00 +18°C° 0 mm 4 mps 757 mmHg 70%
    07:00 +19°C° 0 mm 4 mps 757 mmHg 69%
    08:00 +20°C° 0 mm 4 mps 757 mmHg 64%
    09:00 +22°C° 0 mm 4 mps 758 mmHg 60%
    10:00 +25°C° 0 mm 5 mps 758 mmHg 56%
    11:00 +26°C° 0 mm 5 mps 757 mmHg 54%
    12:00 +27°C° 0 mm 5 mps 757 mmHg 53%
    13:00 +28°C° 0 mm 5 mps 757 mmHg 51%
    14:00 +28°C° 0 mm 5 mps 757 mmHg 51%
    15:00 +28°C° 0 mm 5 mps 756 mmHg 51%
    16:00 +28°C° 0 mm 5 mps 756 mmHg 51%
    17:00 +26°C° 0 mm 4 mps 756 mmHg 56%
    18:00 +25°C° 0 mm 4 mps 756 mmHg 61%
    19:00 +22°C° 0 mm 4 mps 756 mmHg 66%
    20:00 +21°C° 0 mm 4 mps 756 mmHg 67%
    21:00 +21°C° 0 mm 4 mps 757 mmHg 69%
    22:00 +20°C° 0 mm 4 mps 757 mmHg 71%
    23:00 +19°C° 0 mm 4 mps 757 mmHg 74%

    26 August, Monday

    Time Temperature Precipitation Wind Pressure Humidity
    00:00 +19°C° 0 mm 4 mps 756 mmHg 76%
    01:00 +18°C° 0 mm 4 mps 756 mmHg 79%
    02:00 +18°C° 0 mm 3 mps 756 mmHg 82%
    03:00 +17°C° 0 mm 3 mps 756 mmHg 85%
    04:00 +17°C° 0 mm 3 mps 755 mmHg 87%
    05:00 +18°C° 0 mm 3 mps 755 mmHg 85%
    06:00 +19°C° 0 mm 3 mps 755 mmHg 82%
    07:00 +20°C° 0 mm 4 mps 755 mmHg 80%
    08:00 +22°C° 0 mm 4 mps 755 mmHg 74%
    09:00 +25°C° 0 mm 4 mps 755 mmHg 69%
    10:00 +27°C° 0 mm 4 mps 755 mmHg 63%
    11:00 +28°C° 0 mm 4 mps 755 mmHg 58%
    12:00 +29°C° 0 mm 3 mps 754 mmHg 53%
    13:00 +31°C° 0 mm 3 mps 754 mmHg 48%
    14:00 +31°C° 0 mm 3 mps 754 mmHg 48%
    15:00 +31°C° 0 mm 3 mps 753 mmHg 47%
    16:00 +31°C° 0 mm 3 mps 753 mmHg 46%
    17:00 +29°C° 0 mm 3 mps 753 mmHg 52%
    18:00 +28°C° 0 mm 3 mps 753 mmHg 57%
    19:00 +26°C° 0 mm 3 mps 752 mmHg 63%
    20:00 +25°C° 0.1 mm 3 mps 752 mmHg 66%
    21:00 +24°C° 0.1 mm 3 mps 753 mmHg 70%
    22:00 +23°C° 0.1 mm 4 mps 753 mmHg 73%
    23:00 +22°C° 0.2 mm 3 mps 752 mmHg 75%
    Show more